London Luton Airport

Airport
ICAO code: 
EGGW
IATA Code: 
LTN
Summary
ICAO Region: 
EUR
Territory: 
Location: 
Luton, Bedfordshire,
Serving: 
Luton
Elevation: 
526 ft
Coordinates: 
Aerial View: 
51° 52' 31.104" N, 0° 22' 9.998" W
Metar
Observation
EGGW 240450Z AUTO 27011KT 9999 -RA BKN006/// OVC040/// //////TCU 09/09 Q1002
Station
Luton Airport
Date/Time
2022-05-24 04:50:00
Wind direction
270°
Wind speed
11 kts
Lowest cloud amount
broken clouds
Temperature
9°C
Dew point
9°C
Humidity
100%
QNH
1002 hPa
Weather condition
light rain

Description

International airport with scheduled and business traffic.

Climatology

Temperate Marine climate/Oceanic climate (Köppen climate classification Cfb). Moderately cool summer and comparatively warm winter with a temperature range of only 14°C. Prevailing south-westerly winds.

Runways

Designator Length Width Surface Rops
8/26 2160 46 ASP Yes/Yes
Airport map: 
Aerial View: 

Accidents and Serious Incidents at or in the vicinity of EGGW

SKYbrary Partners:

Safety knowledge contributed by: